Flag for Cambodia Weather past 2 weeks in Battambang, Cambodia

Now
88 °F

Scattered clouds.


Feels Like: 100 °F
Forecast: 80 / 97 °F
Wind: 6 mph from Southwest

Location: Siemreap

Current Time: May 26, 2015 at 9:40:39 AM

Latest Report: May 26, 2015 at 9:00 AM


Visibility: N/A

Pressure: 29.80 "Hg

Humidity: 70%

Dew point: 77 °F

Location of BattambangLocation

Historic Weather in Battambang — Graph

°F

Battambang temperature yesterday

Maximum temperature yesterday: 95 °F (at 12:30 PM)
Minimum temperature yesterday: 81 °F (at 12:00 AM)
Average temperature yesterday: 87 °F

Past Weeks' High & Low Weather Summary

 TemperatureHumidityPressure
High100 °F (May 12, 2:30 PM)100% (May 18, 8:30 AM)29.89 "Hg (May 18, 8:30 AM)
Low50 °F (May 18, 8:30 AM)31% (May 15, 2:30 PM)29.62 "Hg (May 12, 3:30 PM)
Average89 °F65%29.74 "Hg
* Reported May 11 8:00 AM — May 26 8:30 AM, Battambang, Weather by CustomWeather, © 2015

Note: Actual official high and low records may vary slightly from our data, if they occured in-between our weather recording intervals... More about our weather records

Advertising

Battambang weather history for previous 24 hours

 ConditionsComfort  
Time TempWeatherWind HumidityBarometerVisibility
8:30 AM
Tue, May 26
86 °FPassing clouds.6 mph75%29.80 "HgN/A
8:00 AM86 °FPassing clouds.6 mph75%29.80 "HgN/A
7:30 AM84 °FPassing clouds.6 mph79%29.77 "HgN/A
7:00 AM82 °FPassing clouds.7 mph84%29.77 "Hg6 mi
1:00 AM82 °FPassing clouds.3 mph89%29.74 "HgN/A
12:30 AM84 °FPassing clouds.2 mph79%29.74 "HgN/A
12:00 AM84 °FPassing clouds.5 mph84%29.77 "HgN/A
11:30 PM
Mon, May 25
84 °FPassing clouds.2 mph84%29.77 "HgN/A
11:00 PM84 °FPassing clouds.2 mph84%29.77 "HgN/A
10:30 PM84 °FPassing clouds.3 mph84%29.77 "HgN/A
10:00 PM84 °FPassing clouds.2 mph84%29.77 "HgN/A
9:30 PM84 °FPassing clouds.6 mph79%29.77 "HgN/A
9:00 PM84 °FPassing clouds.3 mph79%29.74 "HgN/A
8:30 PM84 °FPassing clouds.7 mph79%29.74 "HgN/A
8:00 PM84 °FPassing clouds.6 mph79%29.71 "HgN/A
7:30 PM86 °FPassing clouds.9 mph75%29.71 "HgN/A
7:00 PM86 °FPassing clouds.7 mph70%29.71 "HgN/A
6:30 PM86 °FPassing clouds.12 mph75%29.68 "HgN/A
6:00 PM86 °FScattered clouds.7 mph75%29.68 "HgN/A
5:30 PM88 °FScattered clouds.8 mph70%29.65 "HgN/A
5:00 PM88 °FScattered clouds.10 mph70%29.68 "HgN/A
4:30 PM90 °FScattered clouds.12 mph67%29.68 "HgN/A
4:00 PM90 °FScattered clouds.8 mph67%29.68 "HgN/A
3:30 PM90 °FScattered clouds.9 mph71%29.68 "HgN/A
3:00 PM88 °FScattered clouds.9 mph70%29.65 "HgN/A
2:30 PM84 °FScattered clouds.10 mph79%29.65 "Hg6 mi
2:00 PM82 °FLight rain. Scattered clouds.21 mph79%29.68 "Hg4 mi
1:30 PM95 °FScattered clouds.9 mph50%29.68 "HgN/A
1:00 PM93 °FScattered clouds.7 mph53%29.68 "HgN/A
12:30 PM95 °FScattered clouds.7 mph50%29.68 "HgN/A
12:00 PM93 °FScattered clouds.8 mph53%29.71 "HgN/A
11:30 AM93 °FScattered clouds.9 mph53%29.71 "HgN/A
11:00 AM93 °FScattered clouds.10 mph53%29.74 "HgN/A
10:30 AM93 °FScattered clouds.12 mph56%29.74 "HgN/A
9:30 AM91 °FPassing clouds.N/A59%29.74 "Hg6 mi
Weather by CustomWeather, © 2015

See weather overviewHow to use our weather pages